[[{"header":{"parameterUnit":"m.s-1","parameterCategory":1,"la1":30.2991,"la2":30.254,"lo1":-89.0895,"lo2":-89.0444,"dy":0.0017,"dx":0.0017,"nx":28,"ny":28,"refTime":"2024-04-03T03:00:00:Z","depth":0,"parameterNumber":2,"parameterNumberName":"U-component_of_WINDS"},"data":[0,0,0,0,0,0,0,0,0,0,0,0,0,0,0,0,0,0,0,0,0,0,0,0,0,0,0,0,0,0,0,0,0,0,0,0,0,0,0,0,0,0,0,0,0,0,0,0,0,0,0,0,0,0,0,0,0,0,4.2146,4.2147,0,4.226,4.2262,4.2263,4.2213,4.221,4.2207,4.2205,4.2323,4.2328,4.2334,0,0,0,0,0,0,0,0,0,0,0,0,0,4.1886,4.1891,4.2146,4.2147,4.2148,4.226,4.2262,4.2263,4.2213,4.221,4.2207,4.2203,4.2321,4.2327,4.2334,0,0,0,0,0,0,0,0,0,0,0,0,0,4.1999,4.1892,4.2145,4.2137,4.2137,4.226,4.2262,4.2264,4.2214,4.221,4.2206,4.2202,4.2318,4.2327,4.2335,4.2473,0,0,4.2362,4.2365,0,0,0,0,0,0,0,0,4.1993,4.2009,4.2137,4.2138,4.2139,4.2218,4.2213,4.2334,4.2215,4.2185,4.2205,4.22,4.2291,4.2302,4.2333,4.2478,4.2483,4.2362,4.2368,4.2371,4.2374,0,0,0,0,0,0,0,4.1985,4.2004,4.2191,4.2139,4.214,4.2128,4.214,4.2236,4.226,4.2187,4.2184,4.2198,4.2291,4.2324,4.2335,4.2485,4.2362,4.237,4.2375,4.2379,4.2751,4.2756,0,0,0,0,0,0,4.1977,4.1997,4.2187,4.2194,4.2054,4.2136,4.2149,4.2197,4.2259,4.2265,4.2202,4.2196,4.2312,4.2325,4.2339,4.2505,4.2371,4.2379,4.2384,4.2746,4.2752,4.2757,0,0,0,0,0,0,4.1972,4.1994,4.2183,4.2095,4.2118,4.2145,4.2199,4.2201,4.2235,4.227,4.2274,4.2231,4.2309,4.2327,4.244,4.2508,4.2383,4.2391,4.2741,4.2748,4.2755,4.2838,0,0,0,0,0,0,4.1964,4.1993,4.2045,4.2097,4.2123,4.2282,4.2203,4.2206,4.225,4.2242,4.2299,4.2304,4.2307,4.2428,4.2449,4.2518,4.2398,4.2735,4.2744,4.2752,4.2829,4.2847,4.2862,0,0,0,0,0,4.1955,4.2063,4.2047,4.2071,4.2188,4.2286,4.2301,4.2302,4.2255,4.2308,4.2331,4.2302,4.2498,4.244,4.2463,4.2536,4.273,4.2741,4.2752,4.2822,4.2843,4.2861,0,0,0,0,0,0,4.2018,4.207,4.2053,4.2181,4.2229,4.2277,4.2343,4.2324,4.2387,4.2378,4.2377,4.239,4.2507,4.2533,4.2467,4.2673,4.2607,4.2623,4.2652,4.2673,4.2689,4.2681,4.2405,0,0,0,0,0,4.2047,4.2121,4.2162,4.2271,4.2296,4.2316,4.2358,4.2355,4.2405,4.2426,4.2457,4.2507,4.258,4.2628,4.2696,4.2832,4.2845,4.2894,4.2911,4.2924,4.2938,4.3014,4.3036,4.2792,4.2792,4.2792,0,0,4.2107,4.2144,4.2191,4.2285,4.2322,4.24,4.2333,4.2418,4.2476,4.2438,4.2548,4.2573,4.2629,4.2755,4.2812,4.278,4.3008,4.2938,4.2948,4.2955,4.3027,4.305,4.3071,4.2799,4.2798,4.2797,0,0,4.2256,4.2291,4.2387,4.2426,4.2483,4.2496,4.2519,4.257,4.2586,4.2695,4.2669,4.2739,4.2863,4.2905,4.2943,4.311,4.3087,4.3133,4.3219,4.3293,4.3312,4.3329,4.339,4.3412,4.3146,4.3147,4.3147,0,4.2323,4.2439,4.2438,4.2526,4.2568,4.2538,4.2636,4.2673,4.2751,4.2781,4.2744,4.2902,4.2937,4.3073,4.3115,4.3145,4.3173,4.3126,4.3309,4.3326,4.3342,4.3401,4.3423,4.3152,4.3151,4.3151,4.315,0,4.252,4.2601,4.2671,4.2747,4.2797,4.2889,4.2903,4.2955,4.2948,4.2965,4.3078,4.312,4.3197,4.3229,4.3223,4.3365,4.3344,4.3308,4.3242,4.3371,4.3426,4.3448,4.316,4.3158,4.3156,4.3155,0,0,4.2711,4.2786,4.2812,4.2847,4.2909,4.2972,4.3063,4.3139,4.3184,4.3239,4.3316,4.3424,4.3392,4.3435,4.3433,4.3498,4.363,4.3455,4.3456,4.3487,4.3791,4.3818,4.3844,4.3615,4.3619,4.3622,4.3787,0,4.2865,4.3025,4.3028,4.3175,4.3251,4.3224,4.3304,4.3352,4.3371,4.3438,4.3459,4.3536,4.3487,4.3513,4.3576,4.3601,4.3691,4.3589,4.3688,4.3691,4.3675,4.3872,4.39,4.4054,4.3808,4.3812,4.3814,0,4.3067,4.3129,4.3283,4.3336,4.3368,4.344,4.3511,4.3576,4.363,4.3639,4.3688,4.3677,4.3772,4.3703,4.3833,4.3764,4.3805,4.3823,4.3829,4.3839,4.3761,4.3888,4.4102,4.4126,4.3848,4.3845,4.3843,0,4.3192,4.3314,4.3423,4.3453,4.3517,4.3569,4.3598,4.3648,4.3694,4.3757,4.3787,4.386,4.39,4.3957,4.3966,4.3915,4.4098,4.4029,4.411,4.411,4.4149,4.4147,4.4374,4.4175,4.4175,4.4174,4.4174,0,4.3364,4.346,4.348,4.3547,4.3654,4.3657,4.3764,4.3789,4.3834,4.3906,4.3888,4.3956,4.3965,4.4036,4.4044,4.4152,4.417,4.4181,4.4182,4.4183,4.4182,4.421,4.42,4.418,4.4179,4.4178,4.4177,0,4.3522,4.3539,4.3656,4.3708,4.3723,4.38,4.3845,4.391,4.3927,4.4019,4.4041,4.4069,4.4152,4.4167,4.4265,4.427,4.44,4.439,4.4382,4.4381,4.446,4.4453,4.4714,4.4749,4.4527,4.4529,4.453,0,4.3631,4.3705,4.3765,4.3812,4.3844,4.392,4.3968,4.3974,4.4024,4.4093,4.415,4.4231,4.4296,4.443,4.4459,4.4534,4.4526,4.4613,4.4537,4.4537,4.4529,4.4525,4.4533,4.4627,4.463,4.4632,4.4633,0,4.3824,4.3829,4.3898,4.3971,4.4028,4.4086,4.4141,4.418,4.4194,4.4252,4.4337,4.4387,4.4488,4.4569,4.4644,4.4675,4.4658,4.4657,4.468,4.4681,4.4674,4.468,4.4422,4.4651,4.4649,4.4648,4.4647,4.4646,4.3961,4.4026,4.4079,4.4157,4.4199,4.4251,4.4315,4.4341,4.4412,4.4494,4.4494,4.4587,4.4641,4.474,4.4776,4.485,4.4823,4.4855,4.4864,4.4872,4.488,4.4662,4.4864,4.4863,4.4863,4.4862,4.4862,0,4.4154,4.4187,4.4259,4.4336,4.4398,4.4376,4.4436,4.449,4.4572,4.4624,4.4689,4.4787,4.4866,4.4903,4.4981,4.5033,4.5027,4.5054,4.505,4.5058,4.4899,4.4872,4.5057,4.5057,4.5057,4.5057,4.5057,4.5057,4.4261,4.437,4.4382,4.4512,4.4545,4.4636,4.4672,4.4721,4.4762,4.4873,4.4939,4.4962,4.5008,4.509,4.5163,4.5171,4.5201,4.5232,4.5237,4.5088,4.5069,4.505,4.5024,4.5238,4.5239,4.539,4.5391,4.5392]},{"header":{"parameterUnit":"m.s-1","parameterCategory":1,"la1":30.2991,"la2":30.254,"lo1":-89.0895,"lo2":-89.0444,"dy":0.0017,"dx":0.0017,"nx":28,"ny":28,"refTime":"2024-04-03T03:00:00:Z","depth":0,"parameterNumber":3,"parameterNumberName":"V-component_of_WINDS"},"data":[0,0,0,0,0,0,0,0,0,0,0,0,0,0,0,0,0,0,0,0,0,0,0,0,0,0,0,0,0,0,0,0,0,0,0,0,0,0,0,0,0,0,0,0,0,0,0,0,0,0,0,0,0,0,0,0,0,0,-4.9507,-4.9509,0,-4.9694,-4.9696,-4.9698,-4.9656,-4.9653,-4.9649,-4.9646,-4.9838,-4.9846,-4.9855,0,0,0,0,0,0,0,0,0,0,0,0,0,-4.9116,-4.9124,-4.9507,-4.951,-4.9512,-4.9694,-4.9696,-4.9699,-4.9657,-4.9652,-4.9648,-4.9644,-4.9836,-4.9845,-4.9856,0,0,0,0,0,0,0,0,0,0,0,0,0,-4.9293,-4.9126,-4.9507,-4.9513,-4.9515,-4.9693,-4.9696,-4.9699,-4.9658,-4.9652,-4.9647,-4.9642,-4.9832,-4.9844,-4.9857,-5.0041,0,0,-4.9896,-4.9901,0,0,0,0,0,0,0,0,-4.9283,-4.9307,-4.951,-4.9513,-4.9516,-4.9646,-4.9629,-4.9814,-4.9659,-4.9604,-4.9646,-4.964,-4.9779,-4.9795,-4.9842,-5.005,-5.0058,-4.9897,-4.9904,-4.991,-4.9913,0,0,0,0,0,0,0,-4.9271,-4.9299,-4.9581,-4.9513,-4.9516,-4.9507,-4.9526,-4.9664,-4.9719,-4.9608,-4.9605,-4.9628,-4.9779,-4.983,-4.9846,-5.0061,-4.9896,-4.9907,-4.9915,-4.992,-5.043,-5.0436,0,0,0,0,0,0,-4.9256,-4.9289,-4.9575,-4.9587,-4.9384,-4.9518,-4.954,-4.961,-4.9717,-4.9728,-4.9632,-4.9625,-4.9811,-4.9832,-4.9853,-5.0076,-4.991,-4.9921,-4.9929,-5.0424,-5.0432,-5.0438,0,0,0,0,0,0,-4.9248,-4.9282,-4.9568,-4.9437,-4.9473,-4.9531,-4.961,-4.9616,-4.9667,-4.9735,-4.9745,-4.9674,-4.9808,-4.9835,-4.9995,-5.0082,-4.9927,-4.9939,-5.0417,-5.0427,-5.0435,-5.0524,0,0,0,0,0,0,-4.9236,-4.9279,-4.9349,-4.9439,-4.948,-4.9706,-4.9615,-4.9624,-4.9689,-4.9681,-4.9777,-4.9788,-4.9806,-4.9976,-5.0007,-5.0097,-4.9948,-5.041,-5.0421,-5.0432,-5.0514,-5.0535,-5.0553,0,0,0,0,0,-4.9223,-4.9367,-4.9353,-4.9387,-4.9569,-4.9711,-4.9735,-4.9752,-4.9696,-4.9767,-4.9811,-4.9785,-5.0068,-4.9993,-5.0027,-5.0122,-5.0404,-5.0418,-5.0431,-5.0505,-5.0531,-5.0553,0,0,0,0,0,0,-4.9286,-4.9379,-4.9364,-4.9542,-4.9619,-4.9704,-4.9794,-4.9779,-4.9874,-4.9863,-4.9881,-4.9903,-5.0066,-5.011,-5.0025,-5.0307,-5.0228,-5.0249,-5.0272,-5.0297,-5.0317,-5.0303,-4.9959,0,0,0,0,0,-4.932,-4.9427,-4.9503,-4.9652,-4.9692,-4.9736,-4.9799,-4.9806,-4.9886,-4.9919,-4.9975,-5.0055,-5.0162,-5.0232,-5.0334,-5.0519,-5.054,-5.0602,-5.0622,-5.0638,-5.0656,-5.0759,-5.0787,-5.0482,-5.0482,-5.0482,0,0,-4.9393,-4.9457,-4.9523,-4.9667,-4.9727,-4.9839,-4.9764,-4.9885,-4.9968,-4.9937,-5.0092,-5.0136,-5.0226,-5.04,-5.0479,-5.0441,-5.0745,-5.0655,-5.0667,-5.0677,-5.0775,-5.0804,-5.083,-5.0491,-5.049,-5.0488,0,0,-4.9582,-4.9641,-4.9772,-4.9834,-4.9927,-4.9956,-4.9987,-5.0075,-5.0103,-5.0258,-5.0237,-5.0337,-5.052,-5.0586,-5.0643,-5.0858,-5.0838,-5.0891,-5.0995,-5.1095,-5.1119,-5.114,-5.1218,-5.1246,-5.0908,-5.0909,-5.0909,0,-4.9661,-4.9827,-4.9841,-4.9965,-5.0029,-5.0006,-5.014,-5.0199,-5.0321,-5.0366,-5.0322,-5.0553,-5.0612,-5.0801,-5.0854,-5.09,-5.0938,-5.088,-5.1114,-5.1136,-5.1156,-5.123,-5.126,-5.0915,-5.0914,-5.0913,-5.0913,0,-4.992,-5.0036,-5.0131,-5.0248,-5.0323,-5.0451,-5.0486,-5.056,-5.056,-5.0594,-5.0752,-5.0822,-5.0939,-5.0984,-5.0985,-5.1174,-5.1148,-5.1109,-5.1031,-5.1191,-5.1261,-5.129,-5.0923,-5.0921,-5.0919,-5.0918,0,0,-5.0154,-5.0278,-5.0313,-5.0367,-5.0467,-5.0558,-5.0685,-5.0798,-5.0862,-5.0947,-5.1055,-5.1211,-5.1175,-5.1241,-5.1249,-5.1337,-5.1504,-5.1287,-5.1289,-5.1326,-5.1718,-5.1747,-5.178,-5.1491,-5.1496,-5.15,-5.171,0,-5.0354,-5.0577,-5.0594,-5.0796,-5.0904,-5.0884,-5.0995,-5.1069,-5.1104,-5.1202,-5.124,-5.1351,-5.1295,-5.1335,-5.1421,-5.1465,-5.1583,-5.145,-5.1592,-5.1597,-5.1571,-5.1817,-5.1848,-5.2043,-5.1738,-5.1743,-5.1746,0,-5.0616,-5.0708,-5.0921,-5.1007,-5.1053,-5.1153,-5.1259,-5.1351,-5.1435,-5.1455,-5.1528,-5.1525,-5.1656,-5.1572,-5.1755,-5.1664,-5.1723,-5.1754,-5.1762,-5.1777,-5.1682,-5.1839,-5.2106,-5.2135,-5.1789,-5.1786,-5.1783,0,-5.0767,-5.0945,-5.1095,-5.1142,-5.1246,-5.1316,-5.1363,-5.1442,-5.1509,-5.1602,-5.1646,-5.1753,-5.1812,-5.1895,-5.1921,-5.1857,-5.2103,-5.2021,-5.2124,-5.2123,-5.2177,-5.2174,-5.2458,-5.2214,-5.2213,-5.2212,-5.2212,0,-5.0989,-5.112,-5.1165,-5.1258,-5.1405,-5.1423,-5.1568,-5.1611,-5.1681,-5.1783,-5.1771,-5.1867,-5.1895,-5.1996,-5.2017,-5.2165,-5.2192,-5.2212,-5.2216,-5.2214,-5.2212,-5.2254,-5.2241,-5.222,-5.2219,-5.2217,-5.2216,0,-5.1183,-5.1218,-5.1381,-5.1466,-5.1491,-5.1595,-5.1669,-5.1758,-5.1791,-5.192,-5.1951,-5.2004,-5.2122,-5.2156,-5.2297,-5.2312,-5.2487,-5.2478,-5.2458,-5.2459,-5.256,-5.2551,-5.2883,-5.2928,-5.2652,-5.2655,-5.2657,0,-5.1323,-5.1423,-5.1519,-5.1586,-5.1636,-5.1744,-5.1812,-5.1834,-5.1907,-5.201,-5.2088,-5.2205,-5.2299,-5.2489,-5.254,-5.2649,-5.2643,-5.2752,-5.266,-5.2654,-5.2647,-5.2641,-5.2652,-5.277,-5.2773,-5.2775,-5.2777,0,-5.1567,-5.158,-5.1679,-5.1785,-5.1868,-5.1952,-5.2033,-5.2089,-5.2123,-5.2205,-5.2325,-5.2399,-5.2543,-5.266,-5.277,-5.2819,-5.2805,-5.2806,-5.2836,-5.2835,-5.282,-5.2831,-5.2507,-5.2798,-5.2796,-5.2795,-5.2793,-5.2793,-5.174,-5.1829,-5.191,-5.2021,-5.2085,-5.2161,-5.225,-5.2294,-5.2395,-5.2514,-5.2521,-5.2652,-5.2735,-5.2881,-5.2936,-5.3039,-5.3007,-5.305,-5.3061,-5.3072,-5.3081,-5.2802,-5.3059,-5.3058,-5.3058,-5.3058,-5.3057,0,-5.1985,-5.2036,-5.2138,-5.2252,-5.234,-5.2318,-5.2407,-5.2483,-5.2598,-5.2675,-5.2769,-5.2908,-5.302,-5.3081,-5.3193,-5.3264,-5.3261,-5.3293,-5.3289,-5.3301,-5.3102,-5.3066,-5.3294,-5.3294,-5.3294,-5.3294,-5.3294,-5.3294,-5.2123,-5.2272,-5.2295,-5.2476,-5.2526,-5.2654,-5.2707,-5.2778,-5.284,-5.2996,-5.309,-5.3128,-5.3199,-5.3316,-5.3419,-5.3434,-5.3477,-5.3513,-5.3525,-5.3339,-5.3314,-5.3291,-5.3257,-5.3522,-5.3522,-5.3715,-5.3716,-5.3718]}]]